Regional Weather Roundup
Issued by NWS Goodland, KS

Home | Current Version | Previous Version | Graphics & Text | Print | Product List | Glossary On
Versions: 1 2 3 4 5 6 7 8 9 10 11 12 13 14 15 16 17 18 19 20 21 22 23 24 25 26 27 28 29 30 31 32 33 34 35 36 37 38 39 40 41 42 43 44 45 46 47 48 49 50
000
ASUS43 KGLD 291559
RWRGLD

GOODLAND FORECAST AREA HOURLY WEATHER ROUNDUP
NATIONAL WEATHER SERVICE GOODLAND KS
1000 AM MDT FRI APR 29 2016

...OFFICIAL OBSERVATIONS...

CITY           SKY/WX    TMP DP  RH WIND       PRES   REMARKS
GOODLAND KS    LGT RAIN  40  38  93 NE13      29.96F
HILL CITY KS   LGT RAIN  43  39  86 NE17      30.02F
IMPERIAL NEB   CLOUDY    42  37  82 NE15      30.01S
MCCOOK NEB     CLOUDY    43  38  82 NE16      30.02F
AKRON CO       RAIN      36  34  92 E10       29.97R FOG
BURLINGTON CO  LGT RAIN  39  36  89 NE20      29.93F
LIMON CO       LGT SNOW  32  31  96 N7        29.93F VSB 3/4
$$

...UNOFFICIAL OBSERVATIONS...

CITY           SKY/WX    TMP DP  RH WIND       PRES   REMARKS
COLBY KS       LGT RAIN  43  43 100 E17G23    29.98S
GOVE KS          N/A     42  32  68 MISG        N/A
LENORA KS        N/A     42  32  68 MISG        N/A
NORTON KS      CLOUDY    43  36  75 NE12      30.02F
SHARON SPRINGS   N/A     40  39  96 NE24        N/A
KIT CARSON CO    N/A     39  36  90 MISG        N/A
YUMA CO          N/A     38  36  94 E10         N/A
$$




USA.gov is the U.S. government's official web portal to all federal, state and local government web resources and services.